sat.trackr.live / text

‹ back to catalog

ASIASAT 7

NORAD 37933 · 2011-069A

PAYLOAD ACTIVE UNKNOWN

§ Identity

Operator
Country
AC
Launch date
2011-11-25
Launch site
TYMSC
Launch vehicle
Mass (kg)
RCS (m²)
45.07

Purposes: comms

External: N2YO · Heavens-Above · Gunter

§ Orbital elements

Epoch: 2026-09-04T01:07:04.332288Z

Period
1,436.06 min
Inclination
0.0413°
Eccentricity
0.0001549
Mean motion
1.00274146 rev/d
Perigee alt
35,779.4 km
Apogee alt
35,792.5 km
Semi-major
42,164.1 km
B*
0.0000e+0
RAAN
277.5125°
Arg perigee
221.2025°
Mean anomaly
326.7208°
Rev number
4,565

§ Raw data

ASIASAT 71 37933U 11069A   26247.04657792 -.00000339  00000+0  00000+0 0  99972 37933   0.0413 277.5125 0001549 221.2025 326.7208  1.00274146 45650

JSON: /api/v1/satellites/37933 · /tle

For live sub-satellite position, see the globe view (requires WebGL).

§ Visibility from observer

Set your observer location to see the next 7 days of passes ≥ 10°. The values pass through the URL so the page stays shareable.

No JS? Fill the form by hand. The geolocation button needs JavaScript.